Regional Weather Roundup
Issued by NWS Upton, NY

Current Version | Previous Version | Text Only | Print | Product List | Glossary On
Versions: 1 2 3 4 5 6 7 8 9 10 11 12 13 14 15 16 17 18 19 20 21 22 23 24 25 26 27 28 29 30 31 32 33 34 35 36 37 38 39 40 41 42 43 44 45 46 47 48 49 50
000
ASUS41 KOKX 301405
RWROKX

REGIONAL WEATHER ROUNDUP
NATIONAL WEATHER SERVICE NEW YORK NY
1000 AM EDT SAT AUG 30 2014

NOTE: "FAIR" INDICATES FEW OR NO CLOUDS BELOW 12,000 FEET WITH NO
SIGNIFICANT WEATHER AND/OR OBSTRUCTIONS TO VISIBILITY.

NYZ071-072-176-178-NJZ106-104-301500-
NEW YORK CITY METRO AREA


CITY           SKY/WX    TMP DP  RH WIND       PRES   REMARKS
CENTRAL PARK   MOSUNNY   72  55  55 CALM      30.29F
LAGUARDIA APRT PTSUNNY   73  56  54 S6        30.26S
KENNEDY INTL   PTSUNNY   74  57  55 S8        30.28S
NEWARK/LIBERTY MOSUNNY   73  57  57 S6        30.27S
BRNX BOT. GARD   N/A     72  55  56 S3        30.29R
TETERBORO      SUNNY     73  56  54 SW8       30.25F
$$

NYZ177-179-078>081-301500-
LONG ISLAND NEW YORK

CITY           SKY/WX    TMP DP  RH WIND       PRES   REMARKS
FARMINGDALE    MOSUNNY   72  59  63 VRB7      30.27F
ISLIP          PTSUNNY   74  60  61 SE14      30.26S
SHIRLEY        MOSUNNY   74  60  61 SE12      30.29S
WESTHAMPTON    SUNNY     73  58  59 VRB7      30.30S
MONTAUK POINT    N/A     71  58  63 VRB6      30.31S
$$

NYZ052-065-067-301500-
HUDSON VALLEY

CITY           SKY/WX    TMP DP  RH WIND       PRES   REMARKS
WHITE PLAINS   MOSUNNY   70  56  61 SW5       30.27S
NEWBURGH       SUNNY     70  57  64 CALM      30.28F
MONTGOMERY     SUNNY     69  56  62 SW8       30.26F
POUGHKEEPSIE   SUNNY     71  58  63 SW6       30.25F
ALBANY         MOSUNNY   69  56  62 S14G20    30.24S
$$

NJZ001-105-106-008-010-013-015-019>022-104-301500-
NEW JERSEY

CITY           SKY/WX    TMP DP  RH WIND       PRES   REMARKS
NEWARK/LIBERTY MOSUNNY   73  57  57 S6        30.27S
TETERBORO      SUNNY     73  56  54 SW8       30.25F
CALDWELL       SUNNY     69  56  62 VRB5      30.27F
MORRISTOWN     MOSUNNY   70  59  68 CALM      30.27F
SOMERVILLE     MOSUNNY   71  59  65 CALM      30.25F
LINDEN         FAIR      78  60  55 S7        30.29S
SUSSEX         CLOUDY    69  59  70 CALM      30.26F
ANDOVER          N/A     69  57  65 VRB5      30.27F
TRENTON        SUNNY     71  60  68 S8        30.26F
MILLVILLE      CLOUDY    72  63  73 SE5       30.26S
ATLANTIC CITY  PTSUNNY   75  63  66 SE9       30.26S
WRIGHTSTOWN    SUNNY     74  63  69 VRB7      30.24F
TOMS RIVER     MOSUNNY   73  61  64 SE8       30.27S
BELMAR         MOSUNNY   73  59  60 SE7       30.27S
$$

PAZ047>061-062-071-301500-
EASTERN PENNSYLVANIA

CITY           SKY/WX    TMP DP  RH WIND       PRES   REMARKS
PHILADELPHIA   PTSUNNY   74  62  66 VRB6      30.25F
ALLENTOWN      CLOUDY    68  58  70 CALM      30.26F
SCRANTON       CLOUDY    68  58  70 SW8       30.24S
$$

CTZ002-004>006-009-010-012-RIZ004-006-007-MAZ004-011-015-301500-
SOUTHERN NEW ENGLAND
 IN CT

CITY           SKY/WX    TMP DP  RH WIND       PRES   REMARKS
BRADLEY INTL   PTSUNNY   71  58  63 VRB6      30.27F
HARTFORD       SUNNY     69  58  67 S6        30.28F
DANBURY        PTSUNNY   70  60  70 SE10      30.29F
WTRBRY/OXFORD  CLOUDY    68  57  68 S12       30.30S
BRIDGEPORT     PTSUNNY   71  61  70 S9        30.27F
MERIDEN        PTSUNNY   70  57  63 S9        30.28F
NEW HAVEN      MOSUNNY   73  59  61 S12       30.28F
CHESTER        FAIR      70  59  68 S9        30.30F
GROTON         SUNNY     69  59  70 SE10      30.29S
WILLIMANTIC    SUNNY     67  58  72 S9        30.30F

 IN RI

CITY           SKY/WX    TMP DP  RH WIND       PRES   REMARKS
PROVIDENCE     MOSUNNY   69  57  65 SE12      30.31F
BLOCK ISLAND   SUNNY     68  57  68 SE9       30.31S
WESTERLY       SUNNY     69  59  70 E10       30.31S

 IN MA

CITY           SKY/WX    TMP DP  RH WIND       PRES   REMARKS
BOSTON         MOSUNNY   68  57  68 S8        30.30S
WORCESTER      MOSUNNY   64  55  72 SW13      30.30F
WESTFIELD      MOSUNNY   67  58  72 S7        30.28F
PROVINCETOWN   SUNNY     66  48  52 S12       30.31F
NANTUCKET      SUNNY     65  52  62 S10       30.32F
$$

ANZ330-335-338-340-345-350-353-355-301500-
COASTAL MARINE OBSERVATIONS


STATION/POSITION TIME  SKY/WX   TEMP    WIND        PRES    VSBY  WAVE
                                AIR SEA DIR/SP/G                  HT/PER
                 (UTC)          (F)     (DEG/KT/KT) (MB)    (MI)  (FT/S)
NY HARB ENTRANCE NOT AVBL
4S FIRE IS       NOT AVBL
23SW MTP         1400                                 N/A           2/ 8
HUDSON CANYON    1400            72 73  140/  6/ 10 1025.0          2/ 8
EXECUTION ROCKS  1400            78 74   CALM  /  4   N/A
WESTERN LI SOUND 1300            72      CALM  /  2   N/A           1
CENTRAL LI SOUND 1400            69 72  170/ 10/ 12   N/A           1
EASTERN LI SOUND 1300            68 69  140/  8/ 12   N/A
ROBBINS REEF     1400            70     160/  8/  9   N/A
$$


>>>>>>>>>>>>>>>>>>>>>>>>>>>> KEY <<<<<<<<<<<<<<<<<<<<<<<<<<<
>                                                          <
>     SKY/WX - SKY CONDITION/PRESENT WEATHER               <
>     TMP    - TEMPERATURE IN FAHRENHEIT                   <
>     DP     - DEWPOINT IN FAHRENHEIT                      <
>     RH     - RELATIVE HUMIDITY IN PERCENT                <
>     WIND   - DIRECTION AND SPEED IN MPH                  <
>     PRES   - MEAN SEA LEVEL PRESSURE IN INCHES OF HG     <
>     WCI    - WIND CHILL INDEX                            <
>     VSB    - VISIBILITY IN MILES                         <
>     HX     - HEAT INDEX                                  <
>     TC     - TEMPERATURE IN CELSIUS                      <
>     VRB    - VARIABLE WIND DIRECTION                     <
>                                                          <
>>>>>>>>>>>>>>>>>>>>>>>>>>>> KEY <<<<<<<<<<<<<<<<<<<<<<<<<<<




USA.gov is the U.S. government's official web portal to all federal, state and local government web resources and services.